{"data":{"norad_id":49430,"epoch":"2026-05-25T00:04:25.987584Z","epoch_age_seconds":67728,"freshness":"FRESH","line1":"1 49430U 21104Y   26145.00307856  .00002890  00000+0  19959-3 0  9999","line2":"2 49430  53.2136 246.8142 0001160  85.3834 274.7290 15.08835704250153","mean_motion":15.08835704,"eccentricity":0.000116,"inclination_deg":53.2136,"raan_deg":246.8142,"arg_perigee_deg":85.3834,"mean_anomaly_deg":274.729,"bstar":0.00019959,"rev_number":25015,"period_min":95.43782641029,"perigee_km":538.95404450028,"apogee_km":540.55899579696,"semimajor_km":6917.8935201486,"source":"CELESTRAK","updated_at":"2026-05-25T13:38:16.799038Z"}}